Weather History for KMWT - October, 2014

Change the Weather History Date:

Sunday, October 26, 2014

  Actual Average (KHOT) Record (KHOT)
Temperature  
Mean Temperature 70 °F -  
Max Temperature 84 °F 71 °F 87 °F (1963)
Min Temperature 55 °F 47 °F 33 °F (1990)
Cooling Degree Days 4    
Growing Degree Days 20 (Base 50)    
Moisture  
Dew Point 58 °F    
Average Humidity 83    
Maximum Humidity 97    
Minimum Humidity 47    
Precipitation  
Precipitation 0.00 in - - ()
Sea Level Pressure  
Sea Level Pressure 29.97 in    
Wind  
Wind Speed 0 mph (SSW)    
Max Wind Speed 7 mph    
Max Gust Speed -    
Visibility 4 miles    
Events Fog    
Averages and records for this station are not official NWS values.
T = Trace of Precipitation, MM = Missing Value Source: NWS Daily Summary

Daily Weather History Graph

Daily Weather History Graph

Search for Another Location

Airport or City:

Trip Planner

Search our weather history database for the weather conditions in past years. The results will help you decide how hot, cold, wet, or windy it might be!

Date:

Astronomy

Oct. 26, 2014 Rise Set
Actual Time 7:29 AM CDT 6:26 PM CDT
Civil Twilight 7:03 AM CDT 6:52 PM CDT
Nautical Twilight 6:33 AM CDT 7:22 PM CDT
Astronomical Twilight 6:04 AM CDT 7:51 PM CDT
Moon 10:03 AM CDT (10/26) 8:43 PM CDT (10/26)
Length of Visible Light 11h 49m
Length of Day
10h 57m
Waxing Crescent, 8% of the Moon is Illuminated
Oct 26
Waxing Crescent
Oct 30
First Quarter
Nov 6
Full
Nov 14
Last Quarter
Nov 22
New

Hourly Weather History & Observations

Time (CDT) Temp. Heat Index Dew Point Humidity Pressure Visibility Wind Dir Wind Speed Gust Speed Precip Events Conditions
12:08 AM 63.0 °F - 61.0 °F 93% 30.03 in 0.5 mi Calm Calm - N/A Fog Fog
12:25 AM 62.1 °F - 61.0 °F 96% 30.02 in 0.8 mi Calm Calm - N/A   Clear
12:53 AM 62.1 °F - 60.1 °F 93% 29.99 in 0.5 mi Calm Calm - N/A Fog Fog
1:05 AM 61.0 °F - 60.1 °F 97% 30.02 in 0.2 mi Calm Calm - N/A Fog Fog
1:12 AM 61.0 °F - 60.1 °F 97% 30.02 in 1.0 mi Calm Calm - N/A   Clear
1:37 AM 60.1 °F - 59.0 °F 96% 30.01 in 2.5 mi Calm Calm - N/A   Clear
1:48 AM 60.8 °F - 59.0 °F 94% 30.01 in 1.5 mi Calm Calm - N/A   Clear
1:53 AM 60.1 °F - 57.9 °F 93% 29.99 in 1.2 mi Calm Calm - N/A   Clear
2:24 AM 59.0 °F - 57.9 °F 96% 30.01 in 2.0 mi Calm Calm - N/A   Clear
2:42 AM 59.0 °F - 57.0 °F 93% 30.01 in 1.5 mi Calm Calm - N/A   Clear
2:49 AM 59.0 °F - 57.2 °F 94% 30.00 in 2.0 mi Calm Calm - N/A   Scattered Clouds
2:53 AM 59.0 °F - 57.0 °F 93% 29.98 in 2.0 mi Calm Calm - N/A   Mostly Cloudy
3:05 AM 59.0 °F - 57.0 °F 93% 30.00 in 2.0 mi Calm Calm - N/A   Scattered Clouds
3:11 AM 59.0 °F - 57.0 °F 93% 30.00 in 1.8 mi Calm Calm - N/A   Mostly Cloudy
3:37 AM 57.9 °F - 57.0 °F 97% 30.00 in 0.8 mi Calm Calm - N/A   Mist
3:46 AM 57.9 °F - 55.9 °F 93% 30.00 in 2.0 mi Calm Calm - N/A   Mostly Cloudy
3:53 AM 57.9 °F - 55.9 °F 93% 29.97 in 2.5 mi Calm Calm - N/A   Scattered Clouds
4:09 AM 57.9 °F - 55.9 °F 93% 29.99 in 3.0 mi Calm Calm - N/A   Clear
4:23 AM 57.0 °F - 55.9 °F 96% 29.99 in 2.0 mi Calm Calm - N/A   Clear
4:42 AM 57.9 °F - 55.9 °F 93% 29.99 in 1.2 mi Calm Calm - N/A   Clear
4:53 AM 57.9 °F - 55.9 °F 93% 29.97 in 1.2 mi Calm Calm - N/A   Clear
5:13 AM 57.0 °F - 55.0 °F 93% 30.00 in 2.5 mi Calm Calm - N/A   Clear
5:30 AM 57.0 °F - 55.0 °F 93% 30.00 in 3.0 mi Calm Calm - N/A   Clear
5:53 AM 55.9 °F - 54.0 °F 93% 29.99 in 3.0 mi Calm Calm - N/A   Clear
6:12 AM 55.9 °F - 54.0 °F 93% 30.01 in 1.8 mi Calm Calm - N/A   Clear
6:22 AM 55.9 °F - 54.0 °F 93% 30.01 in 0.5 mi Calm Calm - N/A Fog Fog
6:33 AM 55.9 °F - 54.0 °F 93% 30.01 in 1.5 mi Calm Calm - N/A   Clear
6:53 AM 55.0 °F - 54.0 °F 96% 30.00 in 1.5 mi Calm Calm - N/A   Clear
7:01 AM 55.0 °F - 54.0 °F 96% 30.01 in 2.5 mi Calm Calm - N/A   Clear
7:22 AM 55.0 °F - 54.0 °F 96% 30.01 in 1.0 mi Calm Calm - N/A   Clear
7:35 AM 55.0 °F - 53.1 °F 93% 30.01 in 2.5 mi Calm Calm - N/A   Clear
7:53 AM 55.0 °F - 53.1 °F 93% 30.00 in 2.0 mi Calm Calm - N/A   Clear
8:37 AM 57.9 °F - 55.9 °F 93% 30.01 in 4.0 mi Calm Calm - N/A   Clear
8:53 AM 61.0 °F - 57.9 °F 90% 30.00 in 3.0 mi Calm Calm - N/A   Clear
9:53 AM 68.0 °F - 64.9 °F 90% 30.00 in 10.0 mi Calm Calm - N/A   Clear
10:53 AM 78.1 °F - 64.9 °F 64% 29.98 in 10.0 mi Calm Calm - N/A   Clear
11:53 AM 81.0 °F 82.2 °F 63.0 °F 54% 29.97 in 10.0 mi North - - N/A   Clear
12:53 PM 82.9 °F 83.3 °F 61.0 °F 47% 29.94 in 10.0 mi North - - N/A   Clear
1:53 PM 84.0 °F 84.5 °F 62.1 °F 47% 29.93 in 10.0 mi Variable 3.5 mph - N/A   Clear
2:53 PM 82.9 °F 83.3 °F 61.0 °F 47% 29.90 in 10.0 mi Variable 6.9 mph - N/A   Clear
3:53 PM 82.9 °F 83.3 °F 61.0 °F 47% 29.89 in 10.0 mi Variable 3.5 mph - N/A   Clear
4:53 PM 81.0 °F 81.9 °F 62.1 °F 52% 29.89 in 10.0 mi Variable 4.6 mph - N/A   Clear
5:53 PM 78.1 °F - 61.0 °F 56% 29.88 in 10.0 mi Variable 4.6 mph - N/A   Clear
6:53 PM 75.0 °F - 61.0 °F 62% 29.89 in 10.0 mi Calm Calm - N/A   Clear
7:53 PM 71.1 °F - 62.1 °F 73% 29.90 in 10.0 mi SSW 3.5 mph - N/A   Clear
8:53 PM 75.0 °F - 60.1 °F 60% 29.88 in 10.0 mi Variable 5.8 mph - N/A   Clear
9:53 PM 73.0 °F - 60.1 °F 64% 29.86 in 10.0 mi Variable 5.8 mph - N/A   Clear
10:53 PM 72.0 °F - 57.9 °F 61% 29.86 in 10.0 mi Calm Calm - N/A   Clear
11:53 PM 72.0 °F - 55.9 °F 57% 29.85 in 10.0 mi Variable 4.6 mph - N/A   Clear